"Sample Date","Sample Time","Sensor Name","Sample Value","Units","Flow Rate","Sample Interval","Sample Volume","Laser Status","Number Channels","Micron Size 0","Counts/Channel 0","Micron Size 1","Counts/Channel 1","Micron Size 2","Counts/Channel 2","Micron Size 3","Counts/Channel 3","Micron Size 4","Counts/Channel 4","Micron Size 5","Counts/Channel 5","Micron Size 6","Counts/Channel 6","Micron Size 7","Counts/Channel 7","Micron Size 8","Counts/Channel 8","Micron Size 9","Counts/Channel 9","Micron Size 10","Counts/Channel 10","Micron Size 11","Counts/Channel 11","Micron Size 12","Counts/Channel 12","Micron Size 13","Counts/Channel 13","Micron Size 14","Counts/Channel 14","Micron Size 15","Counts/Channel 15","Micron Size 16","Counts/Channel 16","Micron Size 17","Counts/Channel 17","Micron Size 18","Counts/Channel 18","Micron Size 19","Counts/Channel 19","Micron Size 20","Counts/Channel 20","Micron Size 21","Counts/Channel 21","Micron Size 22","Counts/Channel 22","Micron Size 23","Counts/Channel 23","Micron Size 24","Counts/Channel 24","Micron Size 25","Counts/Channel 25","Micron Size 26","Counts/Channel 26","Micron Size 27","Counts/Channel 27","Micron Size 28","Counts/Channel 28","Micron Size 29","Counts/Channel 29","Micron Size 30","Counts/Channel 30","Micron Size 31","Counts/Channel 31"
"07/08/06","12:00:02","AMMA06",34895.000,"cc",28314.344,6.00,2831.435,1,6,0.100,19961.000,0.200,12474.000,0.300,1895.000,0.500,382.000,1.000,183.000,5.000,0
"07/08/06","12:00:08","AMMA06",34389.000,"cc",28341.979,6.00,2834.198,1,6,0.100,19643.000,0.200,12568.000,0.300,1748.000,0.500,292.000,1.000,138.000,5.000,0
"07/08/06","12:00:14","AMMA06",34135.000,"cc",28330.815,6.00,2833.082,1,6,0.100,19399.000,0.200,12572.000,0.300,1715.000,0.500,292.000,1.000,157.000,5.000,0
"07/08/06","12:00:20","AMMA06",34939.000,"cc",28326.117,6.00,2832.612,1,6,0.100,19731.000,0.200,12780.000,0.300,1892.000,0.500,360.000,1.000,176.000,5.000,0
"07/08/06","12:00:26","AMMA06",34699.000,"cc",28315.252,6.00,2831.525,1,6,0.100,19407.000,0.200,12866.000,0.300,1858.000,0.500,365.000,1.000,203.000,5.000,0
"07/08/06","12:00:32","AMMA06",34730.000,"cc",28301.697,6.00,2830.170,1,6,0.100,19698.000,0.200,12683.000,0.300,1831.000,0.500,318.000,1.000,200.000,5.000,0
"07/08/06","12:00:38","AMMA06",34736.000,"cc",28349.082,6.00,2834.908,1,6,0.100,19670.000,0.200,12698.000,0.300,1872.000,0.500,300.000,1.000,196.000,5.000,0
"07/08/06","12:00:44","AMMA06",35027.000,"cc",28306.385,6.00,2830.639,1,6,0.100,19778.000,0.200,12606.000,0.300,2005.000,0.500,408.000,1.000,230.000,5.000,0
"07/08/06","12:00:50","AMMA06",36089.000,"cc",28289.486,6.00,2828.949,1,6,0.100,20067.000,0.200,12992.000,0.300,2230.000,0.500,550.000,1.000,250.000,5.000,0
"07/08/06","12:00:56","AMMA06",35855.000,"cc",28319.717,6.00,2831.972,1,6,0.100,20087.000,0.200,12999.000,0.300,2063.000,0.500,456.000,1.000,250.000,5.000,0
"07/08/06","12:01:02","AMMA06",34870.000,"cc",28290.141,6.00,2829.014,1,6,0.100,19806.000,0.200,12624.000,0.300,1928.000,0.500,341.000,1.000,171.000,5.000,0
"07/08/06","12:01:08","AMMA06",34509.000,"cc",28329.713,6.00,2832.971,1,6,0.100,19497.000,0.200,12575.000,0.300,1914.000,0.500,346.000,1.000,177.000,5.000,0
"07/08/06","12:01:14","AMMA06",34610.000,"cc",28338.627,6.00,2833.863,1,6,0.100,19766.000,0.200,12615.000,0.300,1799.000,0.500,262.000,1.000,168.000,5.000,0
"07/08/06","12:01:20","AMMA06",36511.000,"cc",28336.578,6.00,2833.658,1,6,0.100,20406.000,0.200,13118.000,0.300,2181.000,0.500,543.000,1.000,263.000,5.000,0
"07/08/06","12:01:26","AMMA06",37721.000,"cc",28358.594,6.00,2835.860,1,6,0.100,21019.000,0.200,13190.000,0.300,2518.000,0.500,681.000,1.000,313.000,5.000,0
"07/08/06","12:01:32","AMMA06",36759.000,"cc",28258.842,6.00,2825.884,1,6,0.100,20441.000,0.200,12930.000,0.300,2403.000,0.500,675.000,1.000,310.000,5.000,0
"07/08/06","12:01:38","AMMA06",36960.000,"cc",28322.762,6.00,2832.276,1,6,0.100,20464.000,0.200,13265.000,0.300,2357.000,0.500,608.000,1.000,266.000,5.000,0
"07/08/06","12:01:44","AMMA06",41228.000,"cc",28308.328,6.00,2830.833,1,6,0.100,22095.000,0.200,14291.000,0.300,3286.000,0.500,1086.000,1.000,470.000,5.000,0
"07/08/06","12:01:50","AMMA06",37443.000,"cc",28303.578,6.00,2830.358,1,6,0.100,20428.000,0.200,13489.000,0.300,2523.000,0.500,665.000,1.000,338.000,5.000,0
"07/08/06","12:01:56","AMMA06",35893.000,"cc",28318.424,6.00,2831.843,1,6,0.100,20118.000,0.200,13035.000,0.300,2071.000,0.500,436.000,1.000,233.000,5.000,0
"07/08/06","12:02:02","AMMA06",35215.000,"cc",28296.900,6.00,2829.690,1,6,0.100,19867.000,0.200,12839.000,0.300,1959.000,0.500,347.000,1.000,203.000,5.000,0
"07/08/06","12:02:08","AMMA06",34981.000,"cc",28369.760,6.00,2836.976,1,6,0.100,19835.000,0.200,12644.000,0.300,1916.000,0.500,388.000,1.000,198.000,5.000,0
"07/08/06","12:02:14","AMMA06",35001.000,"cc",28333.650,6.00,2833.365,1,6,0.100,19357.000,0.200,13036.000,0.300,2050.000,0.500,362.000,1.000,196.000,5.000,0
"07/08/06","12:02:20","AMMA06",36250.000,"cc",28324.527,6.00,2832.453,1,6,0.100,20173.000,0.200,12970.000,0.300,2318.000,0.500,534.000,1.000,255.000,5.000,0
"07/08/06","12:02:26","AMMA06",34901.000,"cc",28258.279,6.00,2825.828,1,6,0.100,19587.000,0.200,12704.000,0.300,2057.000,0.500,356.000,1.000,197.000,5.000,0
"07/08/06","12:02:32","AMMA06",34320.000,"cc",28310.830,6.00,2831.083,1,6,0.100,19383.000,0.200,12565.000,0.300,1891.000,0.500,308.000,1.000,173.000,5.000,0
"07/08/06","12:02:38","AMMA06",34525.000,"cc",28311.426,6.00,2831.143,1,6,0.100,19522.000,0.200,12641.000,0.300,1827.000,0.500,330.000,1.000,205.000,5.000,0
"07/08/06","12:02:44","AMMA06",34461.000,"cc",28345.231,6.00,2834.523,1,6,0.100,19465.000,0.200,12698.000,0.300,1825.000,0.500,309.000,1.000,164.000,5.000,0
"07/08/06","12:02:50","AMMA06",34345.000,"cc",28332.711,6.00,2833.271,1,6,0.100,19456.000,0.200,12615.000,0.300,1809.000,0.500,292.000,1.000,173.000,5.000,0
"07/08/06","12:02:56","AMMA06",34654.000,"cc",28284.932,6.00,2828.493,1,6,0.100,19609.000,0.200,12698.000,0.300,1888.000,0.500,273.000,1.000,186.000,5.000,0
"07/08/06","12:03:02","AMMA06",34900.000,"cc",28307.918,6.00,2830.792,1,6,0.100,19540.000,0.200,12808.000,0.300,1968.000,0.500,356.000,1.000,228.000,5.000,0
"07/08/06","12:03:08","AMMA06",36080.000,"cc",28349.184,6.00,2834.919,1,6,0.100,20109.000,0.200,13034.000,0.300,2156.000,0.500,533.000,1.000,248.000,5.000,0
"07/08/06","12:03:14","AMMA06",34437.000,"cc",28323.170,6.00,2832.317,1,6,0.100,19452.000,0.200,12711.000,0.300,1776.000,0.500,330.000,1.000,168.000,5.000,0
"07/08/06","12:03:20","AMMA06",34812.000,"cc",28311.609,6.00,2831.161,1,6,0.100,19732.000,0.200,12684.000,0.300,1916.000,0.500,298.000,1.000,182.000,5.000,0
"07/08/06","12:03:26","AMMA06",34227.000,"cc",28282.115,6.00,2828.212,1,6,0.100,19662.000,0.200,12380.000,0.300,1749.000,0.500,291.000,1.000,145.000,5.000,0
"07/08/06","12:03:32","AMMA06",34407.000,"cc",28302.065,6.00,2830.207,1,6,0.100,19738.000,0.200,12396.000,0.300,1786.000,0.500,291.000,1.000,196.000,5.000,0
"07/08/06","12:03:38","AMMA06",34598.000,"cc",28327.162,6.00,2832.716,1,6,0.100,19682.000,0.200,12589.000,0.300,1842.000,0.500,323.000,1.000,162.000,5.000,0
"07/08/06","12:03:44","AMMA06",34517.000,"cc",28377.035,6.00,2837.704,1,6,0.100,19671.000,0.200,12574.000,0.300,1769.000,0.500,308.000,1.000,195.000,5.000,0
"07/08/06","12:03:50","AMMA06",34202.000,"cc",28309.477,6.00,2830.948,1,6,0.100,19592.000,0.200,12381.000,0.300,1766.000,0.500,305.000,1.000,158.000,5.000,0
"07/08/06","12:03:56","AMMA06",34276.000,"cc",28300.924,6.00,2830.093,1,6,0.100,19601.000,0.200,12380.000,0.300,1838.000,0.500,294.000,1.000,163.000,5.000,0
"07/08/06","12:04:02","AMMA06",34425.000,"cc",28259.242,6.00,2825.924,1,6,0.100,19734.000,0.200,12500.000,0.300,1726.000,0.500,299.000,1.000,166.000,5.000,0
"07/08/06","12:04:08","AMMA06",34674.000,"cc",28340.281,6.00,2834.028,1,6,0.100,19891.000,0.200,12555.000,0.300,1798.000,0.500,275.000,1.000,155.000,5.000,0
"07/08/06","12:04:14","AMMA06",34816.000,"cc",28346.346,6.00,2834.635,1,6,0.100,19904.000,0.200,12528.000,0.300,1874.000,0.500,311.000,1.000,199.000,5.000,0
"07/08/06","12:04:20","AMMA06",34347.000,"cc",28311.852,6.00,2831.185,1,6,0.100,19490.000,0.200,12575.000,0.300,1765.000,0.500,316.000,1.000,201.000,5.000,0
"07/08/06","12:04:26","AMMA06",34307.000,"cc",28274.361,6.00,2827.436,1,6,0.100,19588.000,0.200,12531.000,0.300,1746.000,0.500,288.000,1.000,154.000,5.000,0
"07/08/06","12:04:32","AMMA06",34606.000,"cc",28353.725,6.00,2835.373,1,6,0.100,19939.000,0.200,12391.000,0.300,1781.000,0.500,311.000,1.000,184.000,5.000,0
"07/08/06","12:04:38","AMMA06",34057.000,"cc",28314.391,6.00,2831.439,1,6,0.100,19474.000,0.200,12489.000,0.300,1680.000,0.500,283.000,1.000,131.000,5.000,0
"07/08/06","12:04:44","AMMA06",34159.000,"cc",28315.779,6.00,2831.578,1,6,0.100,19487.000,0.200,12527.000,0.300,1741.000,0.500,257.000,1.000,147.000,5.000,0
"07/08/06","12:04:50","AMMA06",34502.000,"cc",28316.982,6.00,2831.699,1,6,0.100,19664.000,0.200,12648.000,0.300,1780.000,0.500,271.000,1.000,139.000,5.000,0
"07/08/06","12:04:56","AMMA06",34640.000,"cc",28333.016,6.00,2833.302,1,6,0.100,19835.000,0.200,12586.000,0.300,1774.000,0.500,288.000,1.000,157.000,5.000,0
"07/08/06","12:05:02","AMMA06",34456.000,"cc",28317.586,6.00,2831.759,1,6,0.100,19903.000,0.200,12392.000,0.300,1712.000,0.500,294.000,1.000,155.000,5.000,0
"07/08/06","12:05:08","AMMA06",34574.000,"cc",28331.846,6.00,2833.185,1,6,0.100,19914.000,0.200,12550.000,0.300,1667.000,0.500,270.000,1.000,173.000,5.000,0
"07/08/06","12:05:14","AMMA06",33946.000,"cc",28298.902,6.00,2829.890,1,6,0.100,19386.000,0.200,12392.000,0.300,1750.000,0.500,260.000,1.000,158.000,5.000,0
"07/08/06","12:05:20","AMMA06",34731.000,"cc",28312.807,6.00,2831.281,1,6,0.100,19923.000,0.200,12526.000,0.300,1769.000,0.500,312.000,1.000,201.000,5.000,0
"07/08/06","12:05:26","AMMA06",34361.000,"cc",28336.240,6.00,2833.624,1,6,0.100,19703.000,0.200,12502.000,0.300,1692.000,0.500,302.000,1.000,162.000,5.000,0
"07/08/06","12:05:32","AMMA06",34579.000,"cc",28287.246,6.00,2828.725,1,6,0.100,19715.000,0.200,12618.000,0.300,1812.000,0.500,278.000,1.000,156.000,5.000,0
"07/08/06","12:05:38","AMMA06",34299.000,"cc",28331.666,6.00,2833.167,1,6,0.100,19517.000,0.200,12567.000,0.300,1760.000,0.500,278.000,1.000,177.000,5.000,0
"07/08/06","12:05:44","AMMA06",35076.000,"cc",28263.943,6.00,2826.395,1,6,0.100,20114.000,0.200,12665.000,0.300,1760.000,0.500,338.000,1.000,199.000,5.000,0
"07/08/06","12:05:50","AMMA06",34418.000,"cc",28344.311,6.00,2834.431,1,6,0.100,19516.000,0.200,12671.000,0.300,1740.000,0.500,340.000,1.000,151.000,5.000,0
"07/08/06","12:05:56","AMMA06",34259.000,"cc",28323.197,6.00,2832.320,1,6,0.100,19496.000,0.200,12511.000,0.300,1764.000,0.500,314.000,1.000,174.000,5.000,0
"07/08/06","12:06:02","AMMA06",34596.000,"cc",28299.090,6.00,2829.909,1,6,0.100,19786.000,0.200,12562.000,0.300,1767.000,0.500,317.000,1.000,164.000,5.000,0
"07/08/06","12:06:08","AMMA06",34396.000,"cc",28357.459,6.00,2835.746,1,6,0.100,19851.000,0.200,12365.000,0.300,1715.000,0.500,273.000,1.000,192.000,5.000,0
"07/08/06","12:06:14","AMMA06",34183.000,"cc",28306.065,6.00,2830.607,1,6,0.100,19673.000,0.200,12297.000,0.300,1757.000,0.500,283.000,1.000,173.000,5.000,0
"07/08/06","12:06:20","AMMA06",34450.000,"cc",28331.572,6.00,2833.158,1,6,0.100,19912.000,0.200,12353.000,0.300,1754.000,0.500,278.000,1.000,153.000,5.000,0
"07/08/06","12:06:26","AMMA06",34565.000,"cc",28289.520,6.00,2828.952,1,6,0.100,19654.000,0.200,12637.000,0.300,1815.000,0.500,292.000,1.000,167.000,5.000,0
"07/08/06","12:06:32","AMMA06",34044.000,"cc",28297.361,6.00,2829.736,1,6,0.100,19551.000,0.200,12328.000,0.300,1718.000,0.500,276.000,1.000,171.000,5.000,0
"07/08/06","12:06:38","AMMA06",34732.000,"cc",28341.324,6.00,2834.133,1,6,0.100,19783.000,0.200,12603.000,0.300,1796.000,0.500,378.000,1.000,172.000,5.000,0
"07/08/06","12:06:44","AMMA06",34580.000,"cc",28294.574,6.00,2829.458,1,6,0.100,19752.000,0.200,12547.000,0.300,1797.000,0.500,311.000,1.000,173.000,5.000,0
"07/08/06","12:06:50","AMMA06",34546.000,"cc",28272.984,6.00,2827.299,1,6,0.100,19808.000,0.200,12539.000,0.300,1766.000,0.500,289.000,1.000,144.000,5.000,0
"07/08/06","12:06:56","AMMA06",34200.000,"cc",28334.315,6.00,2833.432,1,6,0.100,19607.000,0.200,12481.000,0.300,1691.000,0.500,264.000,1.000,157.000,5.000,0
"07/08/06","12:07:02","AMMA06",34147.000,"cc",28306.953,6.00,2830.696,1,6,0.100,19583.000,0.200,12398.000,0.300,1693.000,0.500,306.000,1.000,167.000,5.000,0
"07/08/06","12:07:08","AMMA06",34294.000,"cc",28265.820,6.00,2826.582,1,6,0.100,19659.000,0.200,12358.000,0.300,1784.000,0.500,319.000,1.000,174.000,5.000,0
"07/08/06","12:07:14","AMMA06",34283.000,"cc",28366.004,6.00,2836.601,1,6,0.100,19737.000,0.200,12289.000,0.300,1744.000,0.500,334.000,1.000,179.000,5.000,0
"07/08/06","12:07:20","AMMA06",34444.000,"cc",28346.465,6.00,2834.647,1,6,0.100,19710.000,0.200,12526.000,0.300,1753.000,0.500,275.000,1.000,180.000,5.000,0
"07/08/06","12:07:26","AMMA06",34031.000,"cc",28291.514,6.00,2829.152,1,6,0.100,19542.000,0.200,12342.000,0.300,1712.000,0.500,279.000,1.000,156.000,5.000,0
"07/08/06","12:07:32","AMMA06",34641.000,"cc",28291.190,6.00,2829.119,1,6,0.100,19754.000,0.200,12561.000,0.300,1813.000,0.500,338.000,1.000,175.000,5.000,0
"07/08/06","12:07:38","AMMA06",34461.000,"cc",28361.977,6.00,2836.198,1,6,0.100,19861.000,0.200,12449.000,0.300,1715.000,0.500,260.000,1.000,176.000,5.000,0
"07/08/06","12:07:44","AMMA06",34513.000,"cc",28329.627,6.00,2832.963,1,6,0.100,19875.000,0.200,12448.000,0.300,1723.000,0.500,290.000,1.000,177.000,5.000,0
"07/08/06","12:07:50","AMMA06",34197.000,"cc",28298.348,6.00,2829.835,1,6,0.100,19692.000,0.200,12356.000,0.300,1705.000,0.500,288.000,1.000,156.000,5.000,0
"07/08/06","12:07:56","AMMA06",34183.000,"cc",28350.389,6.00,2835.039,1,6,0.100,19759.000,0.200,12313.000,0.300,1674.000,0.500,272.000,1.000,165.000,5.000,0
"07/08/06","12:08:02","AMMA06",34207.000,"cc",28305.846,6.00,2830.585,1,6,0.100,19717.000,0.200,12329.000,0.300,1730.000,0.500,288.000,1.000,143.000,5.000,0
"07/08/06","12:08:08","AMMA06",34314.000,"cc",28315.543,6.00,2831.554,1,6,0.100,19692.000,0.200,12412.000,0.300,1761.000,0.500,286.000,1.000,163.000,5.000,0
"07/08/06","12:08:14","AMMA06",34037.000,"cc",28306.004,6.00,2830.601,1,6,0.100,19668.000,0.200,12287.000,0.300,1628.000,0.500,281.000,1.000,173.000,5.000,0
"07/08/06","12:08:20","AMMA06",34044.000,"cc",28313.857,6.00,2831.386,1,6,0.100,19672.000,0.200,12233.000,0.300,1660.000,0.500,307.000,1.000,172.000,5.000,0
"07/08/06","12:08:26","AMMA06",34248.000,"cc",28264.818,6.00,2826.482,1,6,0.100,19758.000,0.200,12437.000,0.300,1671.000,0.500,235.000,1.000,147.000,5.000,0
"07/08/06","12:08:32","AMMA06",34203.000,"cc",28342.598,6.00,2834.260,1,6,0.100,19689.000,0.200,12416.000,0.300,1702.000,0.500,251.000,1.000,145.000,5.000,0
"07/08/06","12:08:38","AMMA06",34269.000,"cc",28323.631,6.00,2832.363,1,6,0.100,19786.000,0.200,12325.000,0.300,1757.000,0.500,241.000,1.000,160.000,5.000,0
"07/08/06","12:08:44","AMMA06",34086.000,"cc",28333.533,6.00,2833.354,1,6,0.100,19767.000,0.200,12152.000,0.300,1741.000,0.500,267.000,1.000,159.000,5.000,0
"07/08/06","12:08:50","AMMA06",34533.000,"cc",28339.375,6.00,2833.938,1,6,0.100,19922.000,0.200,12463.000,0.300,1733.000,0.500,253.000,1.000,162.000,5.000,0
"07/08/06","12:08:56","AMMA06",33901.000,"cc",28295.332,6.00,2829.533,1,6,0.100,19573.000,0.200,12152.000,0.300,1702.000,0.500,319.000,1.000,155.000,5.000,0
"07/08/06","12:09:02","AMMA06",33820.000,"cc",28321.285,6.00,2832.129,1,6,0.100,19591.000,0.200,12106.000,0.300,1706.000,0.500,273.000,1.000,144.000,5.000,0
"07/08/06","12:09:08","AMMA06",34153.000,"cc",28320.088,6.00,2832.009,1,6,0.100,19708.000,0.200,12398.000,0.300,1638.000,0.500,261.000,1.000,148.000,5.000,0
"07/08/06","12:09:14","AMMA06",34088.000,"cc",28309.984,6.00,2830.999,1,6,0.100,19693.000,0.200,12347.000,0.300,1629.000,0.500,265.000,1.000,154.000,5.000,0
"07/08/06","12:09:20","AMMA06",34012.000,"cc",28278.475,6.00,2827.848,1,6,0.100,19628.000,0.200,12293.000,0.300,1632.000,0.500,304.000,1.000,155.000,5.000,0
"07/08/06","12:09:26","AMMA06",33941.000,"cc",28355.078,6.00,2835.508,1,6,0.100,19637.000,0.200,12209.000,0.300,1674.000,0.500,277.000,1.000,144.000,5.000,0
"07/08/06","12:09:32","AMMA06",33909.000,"cc",28363.217,6.00,2836.322,1,6,0.100,19819.000,0.200,12019.000,0.300,1669.000,0.500,257.000,1.000,145.000,5.000,0
"07/08/06","12:09:38","AMMA06",33818.000,"cc",28260.359,6.00,2826.036,1,6,0.100,19729.000,0.200,12027.000,0.300,1601.000,0.500,288.000,1.000,173.000,5.000,0
"07/08/06","12:09:44","AMMA06",34191.000,"cc",28270.397,6.00,2827.040,1,6,0.100,19789.000,0.200,12368.000,0.300,1653.000,0.500,239.000,1.000,142.000,5.000,0
"07/08/06","12:09:50","AMMA06",34215.000,"cc",28314.346,6.00,2831.435,1,6,0.100,19691.000,0.200,12398.000,0.300,1683.000,0.500,286.000,1.000,157.000,5.000,0
"07/08/06","12:09:56","AMMA06",34129.000,"cc",28379.135,6.00,2837.914,1,6,0.100,19589.000,0.200,12444.000,0.300,1694.000,0.500,264.000,1.000,138.000,5.000,0
"07/08/06","12:10:02","AMMA06",34829.000,"cc",28286.354,6.00,2828.636,1,6,0.100,20069.000,0.200,12586.000,0.300,1762.000,0.500,260.000,1.000,152.000,5.000,0
"07/08/06","12:10:08","AMMA06",34323.000,"cc",28317.549,6.00,2831.755,1,6,0.100,19816.000,0.200,12298.000,0.300,1754.000,0.500,289.000,1.000,166.000,5.000,0
"07/08/06","12:10:14","AMMA06",34611.000,"cc",28355.357,6.00,2835.536,1,6,0.100,19956.000,0.200,12395.000,0.300,1784.000,0.500,323.000,1.000,153.000,5.000,0
"07/08/06","12:10:20","AMMA06",35189.000,"cc",28274.326,6.00,2827.433,1,6,0.100,20226.000,0.200,12608.000,0.300,1813.000,0.500,344.000,1.000,198.000,5.000,0
"07/08/06","12:10:26","AMMA06",34486.000,"cc",28311.285,6.00,2831.129,1,6,0.100,20017.000,0.200,12300.000,0.300,1722.000,0.500,283.000,1.000,164.000,5.000,0
"07/08/06","12:10:32","AMMA06",34710.000,"cc",28370.406,6.00,2837.041,1,6,0.100,20136.000,0.200,12424.000,0.300,1724.000,0.500,270.000,1.000,156.000,5.000,0
"07/08/06","12:10:38","AMMA06",34638.000,"cc",28320.467,6.00,2832.047,1,6,0.100,19977.000,0.200,12596.000,0.300,1655.000,0.500,287.000,1.000,123.000,5.000,0
"07/08/06","12:10:44","AMMA06",34755.000,"cc",28301.090,6.00,2830.109,1,6,0.100,20107.000,0.200,12564.000,0.300,1626.000,0.500,316.000,1.000,142.000,5.000,0
"07/08/06","12:10:50","AMMA06",34737.000,"cc",28288.461,6.00,2828.846,1,6,0.100,20104.000,0.200,12497.000,0.300,1713.000,0.500,244.000,1.000,179.000,5.000,0
"07/08/06","12:10:56","AMMA06",34770.000,"cc",28333.699,6.00,2833.370,1,6,0.100,20144.000,0.200,12421.000,0.300,1752.000,0.500,300.000,1.000,153.000,5.000,0
"07/08/06","12:11:02","AMMA06",35038.000,"cc",28380.270,6.00,2838.027,1,6,0.100,20073.000,0.200,12705.000,0.300,1801.000,0.500,284.000,1.000,175.000,5.000,0
"07/08/06","12:11:08","AMMA06",34446.000,"cc",28300.027,6.00,2830.003,1,6,0.100,20027.000,0.200,12314.000,0.300,1630.000,0.500,302.000,1.000,173.000,5.000,0
"07/08/06","12:11:14","AMMA06",34546.000,"cc",28278.453,6.00,2827.846,1,6,0.100,19878.000,0.200,12473.000,0.300,1767.000,0.500,284.000,1.000,144.000,5.000,0
"07/08/06","12:11:20","AMMA06",34555.000,"cc",28297.451,6.00,2829.745,1,6,0.100,20015.000,0.200,12370.000,0.300,1746.000,0.500,262.000,1.000,162.000,5.000,0
"07/08/06","12:11:26","AMMA06",34546.000,"cc",28371.168,6.00,2837.117,1,6,0.100,19946.000,0.200,12544.000,0.300,1682.000,0.500,235.000,1.000,139.000,5.000,0
"07/08/06","12:11:32","AMMA06",34599.000,"cc",28305.690,6.00,2830.569,1,6,0.100,19936.000,0.200,12550.000,0.300,1648.000,0.500,298.000,1.000,167.000,5.000,0
"07/08/06","12:11:38","AMMA06",34530.000,"cc",28300.416,6.00,2830.042,1,6,0.100,20064.000,0.200,12403.000,0.300,1624.000,0.500,283.000,1.000,156.000,5.000,0
"07/08/06","12:11:44","AMMA06",34438.000,"cc",28358.842,6.00,2835.884,1,6,0.100,19932.000,0.200,12381.000,0.300,1685.000,0.500,295.000,1.000,145.000,5.000,0
"07/08/06","12:11:50","AMMA06",34596.000,"cc",28275.512,6.00,2827.551,1,6,0.100,19811.000,0.200,12713.000,0.300,1639.000,0.500,283.000,1.000,150.000,5.000,0
"07/08/06","12:11:56","AMMA06",34125.000,"cc",28304.932,6.00,2830.493,1,6,0.100,19755.000,0.200,12193.000,0.300,1695.000,0.500,291.000,1.000,191.000,5.000,0
"07/08/06","12:12:02","AMMA06",35235.000,"cc",28304.775,6.00,2830.478,1,6,0.100,20117.000,0.200,12586.000,0.300,1911.000,0.500,420.000,1.000,201.000,5.000,0
"07/08/06","12:12:08","AMMA06",34794.000,"cc",28370.248,6.00,2837.025,1,6,0.100,20031.000,0.200,12419.000,0.300,1798.000,0.500,338.000,1.000,208.000,5.000,0
"07/08/06","12:12:14","AMMA06",34507.000,"cc",28297.338,6.00,2829.734,1,6,0.100,19938.000,0.200,12397.000,0.300,1690.000,0.500,293.000,1.000,189.000,5.000,0
"07/08/06","12:12:20","AMMA06",33834.000,"cc",28297.742,6.00,2829.774,1,6,0.100,19369.000,0.200,12359.000,0.300,1677.000,0.500,252.000,1.000,177.000,5.000,0
"07/08/06","12:12:26","AMMA06",34003.000,"cc",28346.264,6.00,2834.627,1,6,0.100,19393.000,0.200,12504.000,0.300,1700.000,0.500,247.000,1.000,159.000,5.000,0
"07/08/06","12:12:32","AMMA06",34230.000,"cc",28282.045,6.00,2828.205,1,6,0.100,19561.000,0.200,12575.000,0.300,1701.000,0.500,231.000,1.000,162.000,5.000,0
"07/08/06","12:12:38","AMMA06",33766.000,"cc",28329.770,6.00,2832.977,1,6,0.100,19188.000,0.200,12462.000,0.300,1697.000,0.500,264.000,1.000,155.000,5.000,0
"07/08/06","12:12:44","AMMA06",34174.000,"cc",28281.113,6.00,2828.112,1,6,0.100,19471.000,0.200,12458.000,0.300,1797.000,0.500,284.000,1.000,164.000,5.000,0
"07/08/06","12:12:50","AMMA06",33969.000,"cc",28355.943,6.00,2835.595,1,6,0.100,19343.000,0.200,12476.000,0.300,1714.000,0.500,257.000,1.000,179.000,5.000,0
"07/08/06","12:12:56","AMMA06",33897.000,"cc",28254.887,6.00,2825.489,1,6,0.100,19304.000,0.200,12505.000,0.300,1645.000,0.500,278.000,1.000,165.000,5.000,0
"07/08/06","12:13:02","AMMA06",33719.000,"cc",28381.113,6.00,2838.112,1,6,0.100,19263.000,0.200,12270.000,0.300,1779.000,0.500,244.000,1.000,163.000,5.000,0
"07/08/06","12:13:08","AMMA06",33900.000,"cc",28347.781,6.00,2834.778,1,6,0.100,19290.000,0.200,12430.000,0.300,1753.000,0.500,280.000,1.000,147.000,5.000,0
"07/08/06","12:13:14","AMMA06",34109.000,"cc",28329.324,6.00,2832.933,1,6,0.100,19492.000,0.200,12462.000,0.300,1728.000,0.500,286.000,1.000,141.000,5.000,0
"07/08/06","12:13:20","AMMA06",33643.000,"cc",28307.225,6.00,2830.723,1,6,0.100,19305.000,0.200,12225.000,0.300,1703.000,0.500,268.000,1.000,142.000,5.000,0
"07/08/06","12:13:26","AMMA06",33913.000,"cc",28369.268,6.00,2836.927,1,6,0.100,19524.000,0.200,12287.000,0.300,1688.000,0.500,271.000,1.000,143.000,5.000,0
"07/08/06","12:13:32","AMMA06",33683.000,"cc",28278.438,6.00,2827.844,1,6,0.100,19308.000,0.200,12301.000,0.300,1672.000,0.500,273.000,1.000,129.000,5.000,0
"07/08/06","12:13:38","AMMA06",34546.000,"cc",28276.490,6.00,2827.649,1,6,0.100,19762.000,0.200,12654.000,0.300,1694.000,0.500,260.000,1.000,176.000,5.000,0
"07/08/06","12:13:44","AMMA06",34046.000,"cc",28313.955,6.00,2831.396,1,6,0.100,19506.000,0.200,12400.000,0.300,1736.000,0.500,269.000,1.000,135.000,5.000,0
"07/08/06","12:13:50","AMMA06",33834.000,"cc",28268.523,6.00,2826.853,1,6,0.100,19255.000,0.200,12448.000,0.300,1707.000,0.500,264.000,1.000,160.000,5.000,0
"07/08/06","12:13:56","AMMA06",34057.000,"cc",28300.473,6.00,2830.047,1,6,0.100,19525.000,0.200,12379.000,0.300,1726.000,0.500,271.000,1.000,156.000,5.000,0
"07/08/06","12:14:02","AMMA06",33759.000,"cc",28377.350,6.00,2837.735,1,6,0.100,19250.000,0.200,12370.000,0.300,1730.000,0.500,260.000,1.000,149.000,5.000,0
"07/08/06","12:14:08","AMMA06",34100.000,"cc",28337.178,6.00,2833.718,1,6,0.100,19472.000,0.200,12460.000,0.300,1743.000,0.500,267.000,1.000,158.000,5.000,0
"07/08/06","12:14:14","AMMA06",33964.000,"cc",28290.463,6.00,2829.046,1,6,0.100,19517.000,0.200,12323.000,0.300,1722.000,0.500,242.000,1.000,160.000,5.000,0